Wind_Speed
3 2 3 2 2 1 1 3 5 7 9 9 9 10 10 9 9 8 7 7 6 6 6 5 4 5 5 5 5 5 5 5 5 4 4 4 4 5 5 6 6 7 7 7 7 7 7 8 8
7 5 5 6 6 5 4 3 3 6 8 9 10 11 11 11 11 9 7 7 6 6 6 5 4 4 4 4 4 5 5 5 5 6 6 6 6 6 7 8 8 8 9 9 8 8 8 7 7
10 8 8 9 10 8 6 5 4 5 6 8 10 11 12 12 12 10 9 8 7 6 6 5 5 5 5 5 5 5 5 6 6 7 7 8 8 8 9 10 10 11 11 11 10 10 9 9 8
11 11 11 12 13 11 9 9 8 5 6 7 9 12 13 13 13 11 9 9 8 8 7 6 5 6 6 6 6 7 7 7 8 9 9 10 10 11 11 11 12 13 13 13 13 12 12 11 11
12 13 14 16 16 13 11 10 9 8 6 8 10 13 14 15 14 12 11 10 10 9 9 8 7 7 7 7 7 8 9 9 10 10 10 11 11 11 12 13 13 14 14 15 15 15 14 14 14
14 15 16 18 19 16 14 11 10 9 8 9 12 14 14 15 15 14 13 11 10 10 10 9 8 8 8 9 10 10 10 10 11 11 12 12 13 13 14 14 15 15 16 16 17 17 17 17 16
15 16 18 21 21 19 16 14 13 11 10 10 13 15 16 17 15 15 14 13 12 12 11 11 11 11 10 11 11 12 12 12 13 13 14 14 14 15 16 16 16 17 18 18 19 19 19 19 19
17 18 21 24 24 22 19 17 15 12 11 12 14 16 18 19 18 17 16 14 14 15 15 14 14 14 14 14 14 14 15 15 15 15 15 15 16 17 18 18 19 20 20 20 20 20 21 21 20
19 20 22 26 26 24 21 19 17 16 15 15 16 18 20 21 20 19 18 17 16 17 17 18 17 18 18 18 18 18 17 17 17 17 17 18 18 19 20 21 21 22 21 22 22 22 23 23 22
21 21 24 27 28 27 24 22 20 19 17 17 19 21 21 22 22 22 21 20 19 20 20 21 21 23 23 22 22 22 22 21 20 20 20 20 21 21 22 23 24 24 24 24 24 25 25 25 25
24 23 27 30 30 29 27 25 24 23 22 21 22 23 24 24 24 24 23 22 22 22 21 22 24 24 24 24 25 25 24 23 22 21 22 23 23 24 25 25 26 27 26 26 26 27 27 27 27
27 26 29 32 32 30 29 28 26 26 25 26 26 26 26 26 26 24 23 22 21 21 22 23 24 25 25 26 26 25 25 24 25 26 25 25 26 27 27 28 28 29 29 28 28 28 28 28 29
26 27 29 32 32 31 30 29 28 28 28 28 28 28 28 27 25 22 21 20 20 21 22 24 25 25 25 26 26 26 27 26 26 26 27 27 28 28 29 29 30 31 31 31 30 30 29 30 30
23 25 27 30 31 31 30 29 29 28 28 28 29 28 28 27 24 22 20 20 19 20 21 22 23 24 25 25 25 26 26 25 26 26 26 27 28 29 29 31 32 33 33 32 32 32 31 30 30
19 21 24 26 29 29 31 29 29 29 29 28 28 28 27 25 23 22 20 19 19 19 20 20 21 21 22 24 25 26 27 27 28 29 29 29 30 31 31 32 33 33 33 33 33 32 32 31 31
15 17 20 22 26 27 28 27 28 28 28 28 27 26 25 24 23 21 20 19 18 18 19 20 21 22 23 24 25 26 27 28 29 30 30 31 32 32 32 33 33 33 33 33 33 33 33 33 32
12 14 16 17 20 23 25 25 26 26 26 26 26 24 23 22 21 19 19 18 18 18 18 19 21 22 23 25 26 27 28 29 30 30 31 31 32 32 33 33 33 34 34 34 34 34 33 33 33
10 11 12 13 14 16 18 20 22 23 24 25 24 23 21 20 19 18 18 18 18 18 19 20 22 23 24 25 27 28 29 29 30 30 31 31 31 31 32 33 34 34 34 34 34 34 33 33 33
8 8 8 9 10 11 13 16 18 21 22 22 22 21 20 18 17 17 17 18 18 19 20 21 22 24 25 26 27 28 29 30 31 31 31 31 31 31 32 32 33 33 34 34 34 34 33 33 33
4 6 7 7 8 9 10 13 16 18 19 19 20 18 16 15 15 16 17 17 18 19 20 22 23 24 26 27 28 30 30 31 32 33 33 32 32 31 31 32 32 32 33 33 33 32 33 33 33
4 4 5 5 5 5 7 8 11 13 13 13 12 12 11 12 13 14 15 16 18 19 20 22 23 25 26 27 28 29 30 31 32 32 33 32 31 30 30 30 31 31 31 32 32 32 32 32 33
4 3 3 3 4 4 5 5 6 5 4 3 5 5 7 9 11 13 15 17 18 19 20 22 23 24 25 26 28 29 29 30 30 31 31 30 30 29 29 29 30 31 32 32 32 32 32 32 33
4 4 4 3 3 3 5 6 3 3 3 1 1 2 5 8 10 12 14 16 17 18 19 21 22 24 25 26 27 28 28 29 29 29 29 30 30 30 30 30 31 31 32 33 33 34 33 33 33
4 4 4 3 3 4 5 6 4 3 2 2 1 3 6 8 10 12 14 15 16 18 19 21 22 24 25 26 26 27 27 27 28 29 29 30 30 31 31 31 32 32 33 34 35 35 35 35 34
5 5 4 4 3 3 4 5 4 4 3 3 3 5 7 9 10 12 14 15 17 19 21 22 24 25 26 26 27 27 27 28 28 29 30 30 31 32 32 33 34 34 35 36 36 36 37 37 37
6 6 6 5 4 3 3 3 3 3 4 5 6 7 8 10 11 13 14 16 18 20 22 23 25 26 26 27 28 28 28 29 30 30 31 32 32 33 34 35 36 36 37 37 37 37 38 38 39
6 7 7 6 5 4 2 2 3 4 6 7 7 8 10 11 12 14 15 17 19 21 23 25 26 27 28 29 29 29 30 31 31 32 33 34 35 36 36 37 38 38 38 38 37 37 37 38 39
6 7 7 6 5 3 2 2 4 6 7 8 10 11 11 13 14 15 16 18 21 23 25 27 28 29 30 30 30 31 32 33 34 35 36 37 37 38 38 38 38 38 38 38 37 37 37 38 38
7 7 8 6 5 5 3 3 6 7 9 10 12 13 13 15 16 17 19 21 23 25 27 29 30 31 32 32 33 33 34 36 37 37 38 39 40 40 40 40 39 38 38 38 37 37 37 37 37
8 9 9 8 6 6 6 6 7 9 11 12 14 15 16 17 18 19 21 23 25 27 28 30 31 33 34 34 35 35 37 38 39 40 41 41 41 42 41 41 40 39 38 38 37 37 36 36 36
Wind_Direction
339 290 271 270 263 250 328 33 36 38 37 28 24 17 6 0 355 352 353 354 352 344 333 331 339 346 349 350 350 352 353 352 350 349 347 343 340 337 335 333 334 334 332 332 335 340 347 355 2
325 302 278 270 266 271 294 320 5 23 28 28 24 18 11 3 355 348 346 345 339 328 321 323 331 337 340 341 340 339 335 332 330 327 323 320 320 318 315 315 317 317 315 315 314 315 317 321 331
315 301 281 273 266 272 284 292 315 344 357 16 18 15 8 360 353 346 340 333 326 317 311 311 316 319 322 324 323 322 319 316 313 311 308 307 307 307 307 307 307 306 305 303 301 299 299 297 298
304 294 280 269 265 272 275 283 294 309 333 347 359 1 359 354 348 343 334 325 316 309 299 300 305 307 307 308 308 308 309 307 307 305 303 303 303 303 304 304 304 304 302 299 296 293 290 287 285
294 284 274 269 269 272 270 274 282 285 310 332 341 345 346 347 342 336 328 318 310 303 297 294 296 298 300 300 300 302 304 304 304 304 302 302 302 302 302 301 301 301 299 296 295 292 287 282 279
287 278 265 262 267 271 266 265 267 272 291 313 326 330 332 334 335 332 323 310 301 299 296 292 293 295 295 295 296 298 299 299 299 299 298 298 298 299 300 300 299 299 298 297 295 293 289 282 275
279 271 257 257 262 264 261 260 261 272 278 300 313 316 318 321 324 324 317 306 295 290 289 288 288 291 291 290 292 293 295 296 297 297 296 294 294 295 296 297 297 298 297 296 294 291 288 285 277
272 262 248 248 254 257 257 255 261 263 276 291 299 305 307 312 314 315 311 300 289 283 283 285 284 285 285 284 284 285 288 289 291 293 293 291 291 293 294 294 294 294 295 295 294 291 288 285 281
266 254 240 240 247 251 251 250 255 261 268 279 291 299 304 308 309 309 303 295 284 277 277 279 282 280 278 278 278 278 279 281 284 286 287 287 289 290 292 292 291 291 292 292 291 290 288 286 283
258 246 233 238 244 247 247 249 252 256 264 277 289 296 300 303 304 303 300 292 283 278 275 272 275 276 274 272 273 273 273 274 276 278 281 284 285 285 286 289 288 289 289 288 287 287 287 287 285
250 239 230 233 241 246 247 249 254 257 263 276 286 292 296 299 300 298 295 289 285 281 278 278 281 280 276 276 276 272 271 273 274 276 279 281 282 283 284 287 287 287 287 287 286 286 285 285 285
247 238 230 231 240 244 247 251 255 261 269 278 285 292 296 297 297 296 293 289 286 281 279 281 284 284 283 279 278 281 282 281 279 277 279 280 280 282 282 283 285 285 285 285 285 285 284 283 283
245 238 232 231 237 243 248 252 258 265 273 280 287 292 295 297 296 293 291 289 288 285 282 280 283 286 284 285 286 287 286 288 285 284 286 282 281 283 284 284 285 286 286 284 284 284 284 282 281
242 239 234 231 235 242 248 254 261 268 275 282 288 292 295 296 296 293 290 290 289 288 287 286 286 287 287 288 290 290 291 293 293 291 291 289 287 287 285 283 284 284 283 282 282 280 280 280 277
240 239 236 234 237 243 250 257 263 270 276 282 287 292 294 295 295 294 292 291 290 291 293 295 296 295 295 296 297 296 295 294 294 294 292 291 289 288 286 285 284 283 282 281 281 279 278 277 275
238 239 240 240 241 245 253 260 265 272 277 281 284 288 290 292 295 296 296 294 295 295 297 298 298 298 299 299 299 298 298 297 297 296 294 293 291 289 287 286 284 283 282 281 280 278 276 274 272
240 241 247 251 252 253 257 262 267 273 277 279 282 285 288 290 295 299 299 300 301 302 303 304 304 305 305 304 304 304 303 302 300 298 297 295 293 291 289 287 285 284 283 281 279 278 276 273 271
246 252 260 264 267 267 268 269 272 275 274 277 279 282 286 289 296 301 303 305 308 309 310 310 311 311 311 310 310 309 308 306 304 302 299 297 295 293 290 288 287 285 284 282 280 278 276 273 271
258 262 266 267 273 276 276 276 275 278 276 275 276 277 281 286 296 300 304 309 312 315 316 317 317 316 316 314 313 311 310 308 307 304 302 300 297 295 292 290 288 286 285 283 281 279 277 273 271
283 267 269 267 273 278 277 280 285 284 279 274 273 272 276 284 295 300 304 312 316 318 319 319 318 317 316 314 313 311 310 308 307 306 304 302 300 297 294 292 290 288 286 283 281 279 277 274 271
305 288 277 279 281 286 296 301 302 296 282 273 266 266 274 285 297 304 309 315 317 318 317 317 316 314 312 311 310 308 307 306 305 304 303 301 299 297 294 292 290 289 287 285 282 280 277 275 273
320 318 305 299 306 310 311 321 324 327 309 264 252 265 279 295 301 307 312 314 315 317 317 316 314 313 312 311 310 309 308 307 306 305 304 303 301 300 298 294 291 289 288 286 284 281 278 275 273
333 327 327 337 353 349 343 347 343 338 352 15 290 282 292 302 307 309 310 312 314 316 316 317 317 316 315 314 314 313 312 311 310 309 308 306 305 304 302 300 296 293 290 287 285 282 279 275 272
330 320 315 312 338 3 6 12 30 22 28 38 327 303 304 305 305 307 310 314 316 318 320 321 322 322 322 321 320 320 319 318 317 316 315 313 311 308 306 303 299 296 292 288 285 281 277 274 270
337 333 326 315 308 337 360 10 29 36 35 8 326 305 302 304 307 311 314 316 320 324 326 326 327 328 328 329 328 327 326 324 322 321 319 317 315 312 310 307 303 299 294 289 285 281 276 272 268
341 341 340 336 323 329 339 352 356 350 328 318 309 307 309 312 313 315 318 322 326 329 331 333 334 335 335 334 333 332 331 329 327 325 323 321 318 315 312 308 305 301 297 292 286 280 275 271 266
338 339 338 338 334 332 326 316 303 300 300 303 307 311 315 316 317 319 323 328 332 335 337 339 340 339 338 336 334 333 332 331 330 328 326 324 321 318 315 311 307 303 298 293 288 282 276 271 266
322 325 331 334 342 352 331 295 291 288 297 303 308 313 317 320 323 325 329 334 337 340 341 342 341 339 337 335 334 333 332 332 331 330 328 326 324 321 317 313 308 304 299 294 289 283 278 272 267
304 310 317 324 331 336 332 306 294 297 302 305 308 314 319 323 326 330 335 337 340 342 342 342 340 338 336 335 334 334 333 333 332 331 330 327 325 322 319 314 310 304 299 295 290 285 280 274 268
287 297 306 310 315 320 319 317 306 307 308 310 314 318 322 326 331 334 336 338 340 341 341 340 338 337 336 335 334 334 333 333 332 331 330 328 326 323 320 316 311 306 301 296 291 286 281 275 269
Height
5913 5912 5912 5912 5913 5912 5910 5910 5909 5909 5909 5908 5907 5907 5907 5907 5908 5909 5906 5904 5904 5903 5903 5902 5901 5901 5900 5900 5900 5899 5899 5899 5900 5900 5900 5900 5900 5900 5900 5900 5899 5899 5899 5899 5899 5899 5898 5898 5897
5912 5912 5912 5912 5911 5910 5911 5910 5909 5909 5909 5908 5907 5907 5907 5907 5907 5906 5905 5904 5904 5903 5903 5902 5901 5900 5900 5900 5899 5899 5899 5899 5899 5899 5899 5899 5899 5899 5898 5898 5898 5898 5898 5898 5898 5897 5897 5897 5897
5911 5911 5911 5910 5909 5909 5910 5909 5909 5909 5908 5907 5907 5907 5907 5907 5907 5906 5905 5904 5904 5903 5902 5901 5900 5900 5899 5899 5899 5898 5898 5898 5898 5898 5897 5897 5897 5897 5896 5896 5896 5896 5896 5896 5896 5895 5896 5895 5895
5911 5910 5910 5909 5907 5907 5908 5908 5908 5908 5907 5906 5906 5907 5907 5907 5906 5906 5905 5905 5904 5903 5901 5900 5900 5899 5899 5898 5898 5898 5897 5897 5897 5896 5896 5896 5895 5895 5894 5894 5894 5893 5893 5893 5893 5893 5893 5893 5893
5910 5909 5907 5905 5904 5905 5906 5906 5906 5906 5906 5905 5905 5906 5906 5906 5905 5905 5904 5904 5903 5902 5901 5899 5899 5898 5897 5897 5897 5896 5896 5895 5895 5895 5894 5894 5893 5893 5892 5892 5891 5891 5890 5890 5890 5890 5890 5890 5891
5908 5906 5905 5902 5901 5902 5903 5903 5904 5904 5904 5903 5904 5904 5904 5905 5904 5903 5903 5902 5902 5901 5900 5898 5897 5897 5896 5896 5895 5895 5894 5894 5893 5893 5892 5892 5891 5890 5890 5889 5888 5888 5887 5887 5887 5887 5887 5887 5887
5906 5904 5901 5899 5898 5899 5900 5901 5901 5901 5901 5901 5902 5903 5902 5902 5902 5902 5901 5901 5900 5899 5898 5897 5896 5895 5894 5894 5893 5892 5892 5891 5891 5890 5889 5889 5888 5888 5887 5886 5886 5885 5884 5884 5883 5883 5883 5883 5883
5901 5901 5898 5895 5895 5896 5897 5897 5898 5898 5899 5899 5900 5900 5900 5899 5899 5899 5899 5898 5898 5897 5896 5895 5893 5892 5892 5891 5890 5889 5889 5888 5888 5887 5886 5886 5885 5885 5884 5883 5883 5882 5881 5880 5880 5879 5878 5878 5878
5897 5897 5894 5892 5891 5892 5893 5894 5895 5895 5896 5896 5896 5897 5897 5896 5896 5896 5895 5895 5894 5893 5892 5891 5890 5889 5888 5887 5886 5886 5885 5884 5884 5883 5882 5882 5881 5881 5880 5879 5879 5878 5877 5876 5875 5875 5874 5874 5873
5891 5891 5890 5888 5887 5888 5889 5891 5891 5892 5892 5892 5893 5893 5893 5893 5892 5892 5891 5891 5890 5889 5888 5886 5885 5884 5884 5883 5882 5880 5879 5879 5878 5877 5877 5877 5876 5876 5875 5874 5874 5873 5872 5872 5871 5870 5870 5869 5869
5884 5885 5884 5883 5883 5884 5886 5887 5888 5888 5889 5889 5889 5890 5890 5889 5888 5888 5887 5886 5885 5884 5883 5881 5881 5879 5878 5877 5876 5874 5872 5872 5872 5871 5871 5871 5870 5870 5870 5869 5868 5868 5867 5866 5865 5865 5865 5864 5864
5878 5878 5879 5879 5879 5881 5882 5883 5884 5885 5886 5886 5886 5886 5886 5885 5884 5883 5882 5881 5880 5879 5878 5877 5875 5874 5873 5871 5870 5869 5867 5867 5867 5866 5866 5865 5865 5864 5864 5863 5862 5861 5861 5860 5860 5859 5859 5859 5858
5871 5873 5874 5875 5876 5878 5879 5880 5881 5881 5882 5882 5881 5881 5881 5881 5880 5879 5878 5876 5875 5874 5873 5872 5871 5869 5868 5866 5865 5864 5863 5862 5862 5861 5860 5859 5859 5858 5857 5857 5856 5855 5854 5853 5853 5853 5852 5852 5852
5866 5868 5871 5872 5874 5875 5876 5877 5878 5878 5878 5878 5878 5877 5876 5876 5875 5874 5873 5872 5871 5870 5869 5868 5866 5864 5863 5862 5861 5859 5858 5858 5857 5856 5855 5854 5853 5852 5851 5850 5849 5848 5847 5846 5846 5846 5845 5845 5845
5863 5866 5868 5869 5871 5872 5873 5874 5875 5875 5875 5875 5874 5874 5872 5871 5871 5870 5869 5868 5867 5866 5865 5863 5862 5861 5859 5858 5856 5855 5853 5853 5851 5850 5848 5847 5846 5845 5844 5843 5841 5840 5839 5838 5838 5838 5838 5838 5837
5862 5864 5866 5867 5868 5869 5872 5872 5872 5872 5872 5871 5871 5869 5868 5867 5867 5866 5865 5864 5863 5862 5861 5859 5858 5857 5855 5853 5852 5850 5848 5847 5845 5843 5842 5840 5838 5837 5836 5834 5833 5832 5831 5830 5830 5829 5829 5829 5829
5862 5863 5864 5866 5866 5867 5868 5869 5869 5868 5868 5867 5866 5865 5864 5863 5863 5862 5862 5861 5859 5858 5856 5855 5853 5852 5850 5848 5846 5844 5842 5840 5838 5836 5834 5833 5831 5829 5827 5826 5825 5823 5822 5822 5821 5821 5821 5821 5821
5863 5863 5864 5865 5865 5865 5865 5865 5864 5863 5862 5862 5861 5860 5860 5859 5859 5858 5858 5857 5856 5854 5852 5851 5849 5847 5845 5843 5840 5838 5836 5834 5832 5829 5827 5825 5823 5821 5819 5818 5816 5815 5814 5813 5812 5812 5812 5812 5812
5863 5863 5863 5864 5863 5863 5862 5861 5860 5858 5856 5856 5856 5856 5856 5856 5856 5855 5855 5854 5852 5851 5849 5847 5845 5842 5840 5838 5835 5833 5830 5828 5825 5823 5820 5818 5816 5814 5811 5810 5808 5806 5805 5804 5803 5803 5803 5803 5803
5863 5863 5862 5862 5861 5860 5859 5858 5856 5853 5852 5851 5851 5851 5852 5853 5853 5853 5852 5851 5850 5848 5846 5843 5841 5839 5836 5833 5830 5828 5825 5822 5819 5816 5813 5810 5808 5806 5804 5802 5800 5798 5796 5795 5794 5794 5794 5793 5794
5863 5862 5861 5861 5860 5858 5857 5856 5853 5850 5847 5847 5848 5849 5850 5850 5851 5851 5850 5849 5847 5845 5843 5841 5838 5835 5832 5829 5826 5822 5819 5816 5812 5809 5806 5803 5801 5798 5796 5794 5792 5790 5788 5787 5786 5785 5785 5785 5785
5863 5862 5861 5860 5858 5857 5856 5854 5852 5848 5846 5846 5847 5848 5849 5849 5850 5849 5848 5847 5845 5843 5840 5838 5835 5832 5828 5824 5821 5817 5813 5809 5806 5802 5799 5796 5793 5790 5788 5786 5784 5781 5780 5778 5777 5776 5776 5776 5775
5862 5861 5860 5859 5858 5857 5855 5853 5851 5848 5847 5848 5848 5848 5848 5849 5848 5848 5847 5845 5843 5840 5838 5835 5831 5827 5823 5819 5815 5811 5807 5803 5799 5795 5792 5788 5785 5783 5780 5778 5775 5773 5771 5769 5768 5767 5766 5766 5766
5861 5861 5860 5859 5858 5857 5855 5853 5851 5849 5849 5848 5848 5848 5848 5848 5848 5847 5845 5843 5841 5838 5834 5831 5827 5822 5818 5813 5809 5805 5801 5797 5793 5789 5785 5781 5778 5775 5772 5769 5766 5764 5762 5760 5758 5757 5756 5756 5756
5861 5861 5860 5858 5857 5857 5855 5854 5853 5851 5850 5849 5849 5849 5848 5848 5847 5845 5843 5840 5837 5834 5830 5826 5821 5817 5812 5807 5803 5799 5794 5790 5786 5782 5778 5774 5770 5767 5763 5760 5757 5754 5752 5750 5748 5746 5746 5745 5745
5860 5860 5859 5858 5857 5856 5855 5854 5854 5852 5851 5850 5849 5848 5847 5846 5844 5842 5840 5837 5833 5830 5825 5821 5816 5811 5806 5802 5797 5793 5789 5784 5780 5776 5772 5767 5763 5759 5755 5751 5747 5744 5741 5739 5737 5735 5734 5734 5734
5859 5858 5858 5857 5856 5856 5855 5854 5853 5851 5850 5849 5848 5847 5845 5844 5842 5839 5836 5833 5829 5825 5820 5815 5811 5806 5801 5797 5792 5788 5783 5778 5774 5769 5765 5760 5755 5750 5746 5741 5737 5733 5730 5727 5725 5723 5722 5722 5722
5859 5858 5857 5856 5855 5854 5854 5853 5852 5850 5849 5848 5846 5845 5843 5841 5839 5835 5832 5828 5824 5820 5815 5810 5805 5801 5796 5792 5787 5782 5777 5772 5767 5762 5757 5752 5747 5742 5737 5732 5727 5722 5719 5715 5713 5711 5710 5710 5710
5858 5858 5856 5855 5854 5853 5852 5854 5850 5849 5847 5846 5844 5842 5840 5838 5835 5831 5827 5823 5819 5814 5809 5805 5801 5796 5792 5787 5782 5777 5771 5766 5760 5755 5749 5744 5738 5733 5727 5722 5717 5712 5708 5704 5701 5699 5698 5697 5697
5856 5855 5855 5854 5853 5851 5851 5853 5848 5847 5845 5843 5841 5839 5836 5833 5829 5825 5822 5818 5814 5809 5805 5801 5796 5792 5786 5781 5776 5770 5765 5759 5753 5747 5741 5735 5729 5723 5717 5712 5706 5701 5697 5693 5690 5687 5685 5685 5685